Regional Weather Roundup
Issued by NWS Grand Forks, ND

Home | Current Version | Previous Version | Text Only | Print | Product List | Glossary On
Versions: 1 2 3 4 5 6 7 8 9 10 11 12 13 14 15 16 17 18 19 20 21 22 23 24 25 26 27 28 29 30 31 32 33 34 35 36 37 38 39 40 41 42 43 44 45 46 47 48 49 50
000
ASUS43 KFGF 291531
RWRFGF
PRAIRIE TO PINES  WEATHER ROUNDUP
NATIONAL WEATHER SERVICE EASTERN NORTH DAKOTA/GRAND FORKS ND
1000 AM CDT SAT APR 29 2017

 **SATELLITE DATA USED TO AUGMENT SKY COVER AT AUTOMATED STATIONS**
 *****  WEATHER ACROSS EASTERN NORTH DAKOTA  *****

CITY           SKY/WX    TMP DP  RH WIND       PRES   REMARKS
GRAND FORKS    FAIR      47  24  40 S3        30.34R
GRAND FRKS AFB FAIR      47  20  33 SW6       30.34R
DEVILS LAKE    FAIR      47  21  35 SE10      30.31R
FARGO          FAIR      49  24  37 S10       30.35R
WAHPETON ARPT  FAIR      46  27  46 S9        30.36S
$$

 ***** WEATHER ACROSS CENTRAL AND WESTERN NORTH DAKOTA  *****

CITY           SKY/WX    TMP DP  RH WIND       PRES   REMARKS
BISMARCK       FAIR      42  29  59 CALM      30.32R
MINOT          FAIR      57  24  28 S14       30.23R
JAMESTOWN      FAIR      48  20  32 S6        30.32R
MINOT AFB      FAIR      55  27  33 W9        30.23R
GARRISON         N/A     50  24  36 SW12      30.27R
WILLISTON      FAIR      47  28  47 CALM      30.25S
DICKINSON      FAIR      52  21  29 W13       30.26R
HETTINGER      FAIR      45  26  47 SW5       30.31R
$$

 *****  OTHER AIRPORT OBSERVATIONS IN OUR AREA  *****

CITY           SKY/WX    TMP DP  RH WIND       PRES   REMARKS
WALHALLA       NOT AVBL
GRAFTON AIRPOR FAIR      48  23  37 S7        30.36R
VALLEY CITY AR FAIR      46  23  39 S8        30.35R
CANDO          NOT AVBL
CAVALIER APRT  FAIR      48  21  34 S9        30.32S
GWINNER        SUNNY     48  23  37 MISG      30.34S
SHEYENNE NWR     N/A     50  22  33 S7        29.95S
ROLLA          FAIR      50  21  32 SW13      30.27R
 ***** THE ABOVE OBSERVATIONS ARE NON NWS ARE NOT QUALITY
       CONTROLLED AND MAY MIS-REPORT RAIN FOR SNOW...
$$

  *****  WEATHER ACROSS NORTHERN MINNESOTA  *****

CITY           SKY/WX    TMP DP  RH WIND       PRES   REMARKS
FLAG ISLAND    FAIR      37  30  75 S5        30.34R
WARROAD        FAIR      45  32  61 CALM      30.34R
ROSEAU         FAIR      46  30  53 CALM      30.34R
HALLOCK        FAIR      48  21  34 S7        30.33R
THF RVR FALLS  FAIR      45  22  40 VRB5      30.35R
BAUDETTE       FAIR      47  24  40 E3        30.32R
WASKISH        FAIR      46  27  46 W5        30.35R
CROOKSTON      FAIR      45  23  42 CALM      30.36R
STEPHEN NDAWN    N/A     46  21  36 S7          N/A
GREENBUSH NDAW   N/A     46  27  46 S2          N/A
$$
  *****  WEATHER ACROSS CENTRAL AND WEST MINNESOTA  *****

CITY           SKY/WX    TMP DP  RH WIND       PRES   REMARKS
FOSSTON        FAIR      46  19  34 S5        30.35R
BEMIDJI        FAIR      47  17  29 SE9       30.35R
PARK RAPIDS    FAIR      46  24  42 S8        30.35R
ELBOW LAKE     FAIR      46  25  45 SE8       30.35F
WADENA         FAIR      46  27  46 S3        30.34F
DETROIT LAKES  FAIR      46  27  46 SW6       30.35S
MOORHEAD       FAIR      46  27  46 S9        30.36S
FERGUS FALLS   FAIR      46  28  49 S7        30.35F
MORRIS MN      FAIR      46  27  46 SE8       30.33F
STAPLES        FAIR      45  21  39 E5        30.34F
$$
  *****  WEATHER ELSEWHERE ACROSS MINNESOTA  *****

CITY           SKY/WX    TMP DP  RH WIND       PRES   REMARKS
DULUTH         FAIR      43  21  41 SE8       30.36R
INTRNTL FALLS  FAIR      44  17  33 SE5       30.34R
ELY            FAIR      43  12  28 SE6       30.36R
CLOQUET        FAIR      45  12  26 E8        30.34F
WHEATON        FAIR      46  21  36 SE8       30.36F
BRAINERD       FAIR      44  23  43 S6        30.36R
HIBBING        FAIR      42  21  43 E5        30.36R
ALEXANDRIA     FAIR      43  25  49 S10       30.35S
SAINT CLOUD    FAIR      44  24  45 E7        30.33F
MINNEAPOLIS    PTSUNNY   45  24  43 E14       30.31R
$$

  *****  WEATHER ACROSS SOUTH DAKOTA  *****

CITY           SKY/WX    TMP DP  RH WIND       PRES   REMARKS
SIOUX FALLS    CLOUDY    46  30  53 E12       30.25F
BROOKINGS      FAIR      44  21  40 E18       30.28F
WATERTOWN      FAIR      43  21  41 E8        30.30F
HURON          FAIR      47  26  44 E8        30.30F
SISSETON         N/A     46  24  42 S10       30.33F
ABERDEEN       FAIR      47  21  35 SE8       30.34R
MITCHELL       FAIR      45  27  49 NE12      30.27F
PIERRE         FAIR      46  23  40 NE6       30.28F
MOBRIDGE       FAIR      48  26  42 CALM      30.29R
RAPID CITY     PTSUNNY   43  24  47 N6        30.29S
$$

  *****  SOME WEATHER IN NEARBY STATES *****

CITY           SKY/WX    TMP DP  RH WIND       PRES   REMARKS
GLASGOW MT     FAIR      46  36  68 CALM      30.25S
GREAT FALLS MT FAIR      44  34  67 SW15      30.19S
CHEYENNE WY    LGT SNOW  27  23  85 N10       30.18S FOG     WCI  17
SCOTTSBLUFF NE CLOUDY    35  26  69 N9        30.26S
OMAHA NE       CLOUDY    45  35  68 N15       30.07F
DES MOINES IA  CLOUDY    46  37  71 NE16      30.08S
DAVENPORT IA   FAIR      46  36  68 NE24G32   30.04F
CHICAGO IL     CLOUDY    46  33  60 NE24G32   30.13F
EAU CLAIRE WI  FAIR      45  23  42 E15G22    30.29R
LA CROSSE WI   FAIR      46  27  47 NE14G24   30.24F
$$

  *****  SOME NATIONAL WEATHER *****

CITY           SKY/WX    TMP DP  RH WIND       PRES   REMARKS
LA GUARDIA NY  PTSUNNY   79  64  60 W12G20    29.99F
RALEIGH NC     FAIR      81  70  69 SW9       30.21S
ATLANTA GA     FAIR      79  67  66 S9        30.16S
NEW ORLEANS LA CLOUDY    79  74  84 S21G30    29.92S
OKLAHOMA CITY  TSTM      48  47  96 N23G31    29.65R
ALBUQUERQUE NM CLOUDY    35  33  92 E18       29.90R WCI  24
SALT LAKE CITY FAIR      45  26  47 W7        30.16R
LOS ANGELES CA FAIR      69  19  15 S6        29.98R
BOISE ID       FAIR      40  32  73 CALM      30.25R
SEATTLE WA     PTSUNNY   45  40  82 SE5       30.29S
$$

*** WEATHER ACROSS MANITOBA...SASKATCHEWAN AND ONTARIO ***
                ***ONTARIO***

CITY           SKY/WX    TMP DP  RH WIND       PRES   REMARKS
GERALDTON      SUNNY     37  16  41 NW7G18    30.25S
THUNDER BAY    SUNNY     39  19  45 SE5       30.35R
SIOUX LOOKOUT  MOSUNNY   39   9  28 NW3       30.31R
TORONTO        PTSUNNY   48  32  53 NW9       30.11F
BIG TROUT LK   SUNNY     28  16  59 VRB8      30.31S WCI  20
PICKLE LAKE    MOSUNNY   34  10  37 W3        30.29R
DRYDEN         SUNNY     41   9  26 NE7       30.31R
KENORA         MOSUNNY   45   9  23 E3        30.31R
$$
                *** MANITOBA***

CITY           SKY/WX    TMP DP  RH WIND       PRES   REMARKS
BRANDON        MOSUNNY   46  25  42 S3        30.23F
DAUPHIN        SUNNY     48  21  34 N6        30.21R
ISLAND LAKE    PTSUNNY   32  21  64 VRB2      30.33S
PILOT MOUND      N/A     50  19  29 S14         N/A
THE PAS        CLOUDY    45  16  31 SE9       30.19S
THOMPSON       CLOUDY    25  18  74 NE3       30.33F
WINNIPEG       SUNNY     48  14  25 S9        30.31R
LYNN LAKE      CLOUDY    30  23  74 SE9       30.25F WCI  22
CHURCHILL      SNOW       7   5  92 W9        30.42F VSB 1/2 WCI  -7
GILLAM         MOSUNNY   21  10  63 N6        30.40S WCI  14
$$
                ***SASKATCHEWAN***

CITY           SKY/WX    TMP DP  RH WIND       PRES   REMARKS
ESTEVAN        MOSUNNY   48  36  61 W5        30.23R
KINDERSLEY     MOSUNNY   39  30  70 VRB2      30.16S
LLOYDMINSTER   PTSUNNY   45  28  53 SW6       30.12F
PRINCE ALBERT  CLOUDY    43  34  70 NE7       30.13S
REGINA         MOSUNNY   41  36  81 SW9       30.22R
YORKTON        SUNNY     48  36  61 SW14      30.17S
N. BATTLEFORD  SUNNY     39  28  65 W5        30.16S
LA RONGE       MOSUNNY   45  16  31 E3        30.14S
SASKATOON      SUNNY     41  32  70 NW6       30.16S
SWIFT CURRENT  SUNNY     43  28  56 SW7       30.18S
$$
NOTE: THESE ARE AUTOMATED STATIONS WITH LIMITED QUALITY CONTROL
      "FAIR" INDICATES FEW OR NO CLOUDS BELOW 12,000 FEET WITH NO
      SIGNIFICANT WEATHER AND/OR OBSTRUCTIONS TO VISIBILITY.
      SKY/WX - SKY CONDITION AND SIGNIFICANT WEATHER.
      TMP - AIR TEMPERATURE.    DP   - DEWPOINT TEMPERATURE.
      RH  - RELATIVE HUMIDITY.  PRES - PRESSURE.
      HX  - HEAT INDEX.         WCI  - WIND CHILL INDEX.
$



USA.gov is the U.S. government's official web portal to all federal, state and local government web resources and services.